[[{"header":{"parameterUnit":"m.s-1","parameterCategory":1,"la1":30.2991,"la2":30.254,"lo1":-89.0895,"lo2":-89.0444,"dy":0.0017,"dx":0.0017,"nx":28,"ny":28,"refTime":"2024-06-02T03:00:00:Z","depth":0,"parameterNumber":2,"parameterNumberName":"U-component_of_WINDS"},"data":[0,0,0,0,0,0,0,0,0,0,0,0,0,0,0,0,0,0,0,0,0,0,0,0,0,0,0,0,0,0,0,0,0,0,0,0,0,0,0,0,0,0,0,0,0,0,0,0,0,0,0,0,0,0,0,0,0,0,-0.7632,-0.7633,0,-0.7646,-0.7646,-0.7646,-0.7631,-0.763,-0.7629,-0.7629,-0.7642,-0.7643,-0.7644,0,0,0,0,0,0,0,0,0,0,0,0,0,-0.7594,-0.7595,-0.7632,-0.7633,-0.7633,-0.7646,-0.7646,-0.7646,-0.7631,-0.763,-0.7629,-0.7629,-0.7642,-0.7643,-0.7644,0,0,0,0,0,0,0,0,0,0,0,0,0,-0.7609,-0.7595,-0.7632,-0.7627,-0.7626,-0.7646,-0.7646,-0.7646,-0.7631,-0.763,-0.7629,-0.7628,-0.7642,-0.7643,-0.7644,-0.767,0,0,-0.7648,-0.7649,0,0,0,0,0,0,0,0,-0.7609,-0.7611,-0.7627,-0.7627,-0.7627,-0.7636,-0.7637,-0.7654,-0.7631,-0.7629,-0.7629,-0.7628,-0.7641,-0.7642,-0.7646,-0.7671,-0.7671,-0.7648,-0.7649,-0.765,-0.765,0,0,0,0,0,0,0,-0.7608,-0.761,-0.7638,-0.7628,-0.7627,-0.7624,-0.7625,-0.764,-0.764,-0.7629,-0.7628,-0.763,-0.764,-0.7645,-0.7647,-0.7671,-0.7648,-0.765,-0.765,-0.7651,-0.7718,-0.7719,0,0,0,0,0,0,-0.7607,-0.7609,-0.7637,-0.7638,-0.7615,-0.7625,-0.7626,-0.7634,-0.7639,-0.7639,-0.7631,-0.7629,-0.7643,-0.7645,-0.7647,-0.7678,-0.765,-0.7651,-0.7652,-0.7717,-0.7718,-0.7719,0,0,0,0,0,0,-0.7606,-0.761,-0.7637,-0.7624,-0.7627,-0.7627,-0.7635,-0.7634,-0.7639,-0.764,-0.764,-0.7636,-0.7643,-0.7645,-0.7665,-0.7678,-0.7652,-0.7653,-0.7716,-0.7717,-0.7719,-0.7739,0,0,0,0,0,0,-0.7605,-0.761,-0.7619,-0.7624,-0.7627,-0.7654,-0.7636,-0.7635,-0.7641,-0.764,-0.7645,-0.7645,-0.7642,-0.7663,-0.7666,-0.7679,-0.7654,-0.7715,-0.7717,-0.7718,-0.7737,-0.7741,-0.7744,0,0,0,0,0,-0.7604,-0.7624,-0.762,-0.7623,-0.7639,-0.7655,-0.7657,-0.7653,-0.7643,-0.7652,-0.7653,-0.7645,-0.7676,-0.7665,-0.7668,-0.7682,-0.7714,-0.7716,-0.7718,-0.7736,-0.774,-0.7744,0,0,0,0,0,0,-0.762,-0.7625,-0.762,-0.7642,-0.7648,-0.7652,-0.7664,-0.7658,-0.7667,-0.7665,-0.766,-0.7661,-0.7682,-0.7684,-0.7671,-0.7708,-0.7693,-0.7696,-0.7705,-0.771,-0.7713,-0.7712,-0.7655,0,0,0,0,0,-0.7627,-0.7639,-0.7642,-0.7661,-0.7665,-0.7664,-0.767,-0.7667,-0.7673,-0.7676,-0.7678,-0.7684,-0.7696,-0.7703,-0.7713,-0.7738,-0.7739,-0.7749,-0.7753,-0.7756,-0.7758,-0.7772,-0.7776,-0.7726,-0.7726,-0.7726,0,0,-0.764,-0.7643,-0.7651,-0.7665,-0.7669,-0.7682,-0.7666,-0.768,-0.7689,-0.7678,-0.7696,-0.7698,-0.7705,-0.7727,-0.7737,-0.773,-0.7773,-0.7759,-0.7761,-0.7762,-0.7775,-0.7779,-0.7783,-0.7728,-0.7728,-0.7727,0,0,-0.767,-0.7674,-0.769,-0.7695,-0.7703,-0.7702,-0.7706,-0.7712,-0.7713,-0.7731,-0.7723,-0.7734,-0.7754,-0.7759,-0.7764,-0.7798,-0.779,-0.7801,-0.782,-0.7833,-0.7837,-0.784,-0.7852,-0.7856,-0.7804,-0.7804,-0.7804,0,-0.7685,-0.7703,-0.77,-0.7714,-0.7721,-0.7712,-0.7729,-0.7734,-0.7744,-0.7748,-0.774,-0.7765,-0.7769,-0.7792,-0.7801,-0.7805,-0.781,-0.78,-0.7837,-0.784,-0.7843,-0.7854,-0.7859,-0.7805,-0.7805,-0.7805,-0.7805,0,-0.7721,-0.7735,-0.7747,-0.7758,-0.7766,-0.7781,-0.7781,-0.7789,-0.7786,-0.7786,-0.7806,-0.781,-0.7822,-0.7827,-0.7824,-0.785,-0.7846,-0.7837,-0.7822,-0.7849,-0.786,-0.7864,-0.7807,-0.7807,-0.7806,-0.7806,0,0,-0.776,-0.777,-0.7774,-0.7779,-0.7787,-0.7797,-0.7813,-0.7825,-0.7832,-0.784,-0.7853,-0.7871,-0.7863,-0.7869,-0.7866,-0.7878,-0.7904,-0.7868,-0.7868,-0.7874,-0.7934,-0.794,-0.7945,-0.79,-0.7901,-0.7901,-0.7933,0,-0.779,-0.7817,-0.7815,-0.7841,-0.7854,-0.7846,-0.786,-0.7866,-0.7868,-0.7879,-0.788,-0.7893,-0.7882,-0.7886,-0.7897,-0.7899,-0.7916,-0.7897,-0.7912,-0.7912,-0.791,-0.795,-0.7956,-0.7986,-0.7937,-0.7938,-0.7938,0,-0.7828,-0.7838,-0.7865,-0.7872,-0.7877,-0.7889,-0.79,-0.7911,-0.7918,-0.7919,-0.7926,-0.7922,-0.7938,-0.7924,-0.7946,-0.7933,-0.7939,-0.7941,-0.7942,-0.7943,-0.7926,-0.7951,-0.7995,-0.7999,-0.7945,-0.7944,-0.7944,0,-0.7853,-0.7873,-0.7892,-0.7897,-0.7905,-0.7914,-0.7918,-0.7925,-0.7932,-0.7942,-0.7947,-0.7958,-0.7964,-0.7973,-0.7972,-0.7962,-0.7995,-0.7981,-0.7995,-0.7996,-0.8002,-0.8001,-0.8047,-0.8007,-0.8007,-0.8007,-0.8007,0,-0.7886,-0.7903,-0.7904,-0.7915,-0.7934,-0.7932,-0.7951,-0.7954,-0.7961,-0.7973,-0.7967,-0.7978,-0.7977,-0.7989,-0.7988,-0.8007,-0.801,-0.801,-0.801,-0.801,-0.801,-0.8013,-0.8011,-0.8008,-0.8008,-0.8008,-0.8008,0,-0.7917,-0.7918,-0.7939,-0.7945,-0.7948,-0.7961,-0.7967,-0.7978,-0.798,-0.7995,-0.7999,-0.8001,-0.8015,-0.8015,-0.8031,-0.803,-0.8053,-0.805,-0.805,-0.8049,-0.8064,-0.8063,-0.8113,-0.8119,-0.8077,-0.8077,-0.8077,0,-0.7938,-0.7951,-0.7959,-0.7967,-0.7972,-0.7985,-0.7992,-0.7991,-0.8,-0.801,-0.802,-0.8033,-0.8043,-0.8066,-0.8069,-0.808,-0.8078,-0.8095,-0.8079,-0.808,-0.8077,-0.8076,-0.8078,-0.8097,-0.8098,-0.8098,-0.8098,0,-0.7974,-0.7974,-0.7985,-0.7997,-0.8007,-0.8016,-0.8025,-0.8032,-0.8032,-0.8041,-0.8055,-0.8064,-0.808,-0.8093,-0.8105,-0.8109,-0.8104,-0.8104,-0.8107,-0.8108,-0.8107,-0.8107,-0.8058,-0.8102,-0.8102,-0.8101,-0.8101,-0.8101,-0.8,-0.8011,-0.8019,-0.8032,-0.8039,-0.8047,-0.8058,-0.8062,-0.8073,-0.8087,-0.8086,-0.8101,-0.8109,-0.8125,-0.813,-0.8142,-0.8136,-0.8142,-0.8144,-0.8145,-0.8146,-0.8106,-0.8145,-0.8144,-0.8144,-0.8144,-0.8144,0,-0.8035,-0.804,-0.8053,-0.8065,-0.8076,-0.8071,-0.808,-0.8089,-0.8103,-0.8111,-0.8122,-0.8138,-0.8152,-0.8156,-0.8169,-0.8178,-0.8176,-0.8181,-0.818,-0.8181,-0.8151,-0.8146,-0.8183,-0.8183,-0.8183,-0.8183,-0.8183,-0.8183,-0.8055,-0.8074,-0.8075,-0.8098,-0.8103,-0.8118,-0.8124,-0.8132,-0.8138,-0.8157,-0.8168,-0.8171,-0.8178,-0.8192,-0.8203,-0.8204,-0.8209,-0.8215,-0.8215,-0.8187,-0.8183,-0.8179,-0.8175,-0.8217,-0.8217,-0.8244,-0.8244,-0.8245]},{"header":{"parameterUnit":"m.s-1","parameterCategory":1,"la1":30.2991,"la2":30.254,"lo1":-89.0895,"lo2":-89.0444,"dy":0.0017,"dx":0.0017,"nx":28,"ny":28,"refTime":"2024-06-02T03:00:00:Z","depth":0,"parameterNumber":3,"parameterNumberName":"V-component_of_WINDS"},"data":[0,0,0,0,0,0,0,0,0,0,0,0,0,0,0,0,0,0,0,0,0,0,0,0,0,0,0,0,0,0,0,0,0,0,0,0,0,0,0,0,0,0,0,0,0,0,0,0,0,0,0,0,0,0,0,0,0,0,3.2468,3.2467,0,3.2362,3.2361,3.236,3.2289,3.2289,3.2288,3.2288,3.2173,3.2171,3.2168,0,0,0,0,0,0,0,0,0,0,0,0,0,3.2604,3.2602,3.2468,3.2467,3.2466,3.2363,3.2361,3.236,3.2289,3.2289,3.2288,3.2288,3.2174,3.2171,3.2168,0,0,0,0,0,0,0,0,0,0,0,0,0,3.2527,3.2602,3.2469,3.2418,3.2413,3.2363,3.2361,3.2359,3.2289,3.2289,3.2288,3.2287,3.2175,3.2171,3.2168,3.2158,0,0,3.2156,3.2154,0,0,0,0,0,0,0,0,3.2531,3.2522,3.2427,3.2422,3.2415,3.2338,3.2367,3.2291,3.229,3.2336,3.2288,3.2287,3.2228,3.222,3.2202,3.2152,3.2147,3.2155,3.2153,3.2151,3.215,0,0,0,0,0,0,0,3.2536,3.2526,3.2426,3.2426,3.2418,3.2399,3.2388,3.2352,3.2287,3.2332,3.2327,3.2315,3.2225,3.2206,3.2198,3.2146,3.2155,3.2152,3.215,3.2148,3.2084,3.2085,0,0,0,0,0,0,3.2551,3.2531,3.243,3.2423,3.2473,3.2398,3.2384,3.2364,3.2288,3.2275,3.2316,3.2312,3.2213,3.2203,3.2194,3.2178,3.2151,3.2148,3.2145,3.2083,3.2084,3.2085,0,0,0,0,0,0,3.2554,3.2542,3.2434,3.2475,3.246,3.2396,3.2373,3.2362,3.2342,3.2276,3.2263,3.2308,3.2212,3.22,3.2168,3.2173,3.2146,3.2142,3.2083,3.2084,3.2084,3.2147,0,0,0,0,0,0,3.2558,3.2544,3.254,3.2476,3.2458,3.2411,3.2374,3.236,3.2337,3.2331,3.2265,3.2253,3.221,3.2174,3.2164,3.2167,3.2139,3.2082,3.2083,3.2084,3.2144,3.215,3.2155,0,0,0,0,0,3.2563,3.256,3.2541,3.2529,3.2453,3.2412,3.2401,3.2353,3.2337,3.2333,3.229,3.2256,3.2175,3.2172,3.216,3.2162,3.2081,3.2083,3.2084,3.2141,3.2148,3.2154,0,0,0,0,0,0,3.2624,3.2551,3.2528,3.2505,3.2466,3.24,3.2392,3.2362,3.2324,3.232,3.226,3.2246,3.2221,3.2188,3.2186,3.2149,3.2124,3.2123,3.2171,3.2178,3.2183,3.2191,3.2136,0,0,0,0,0,3.2636,3.261,3.2546,3.2532,3.2514,3.2457,3.2437,3.2404,3.2359,3.2341,3.2296,3.2253,3.2218,3.2196,3.216,3.2139,3.2123,3.2134,3.214,3.2145,3.2145,3.2132,3.2136,3.209,3.209,3.209,0,0,3.2658,3.2615,3.2601,3.2543,3.2509,3.2482,3.2443,3.2416,3.2395,3.2336,3.2305,3.2271,3.2218,3.2193,3.2179,3.2164,3.2154,3.2147,3.2151,3.2148,3.2134,3.2138,3.2142,3.2091,3.209,3.209,0,0,3.2685,3.265,3.2635,3.2602,3.2551,3.2513,3.251,3.2449,3.2425,3.2393,3.2349,3.2322,3.2263,3.2228,3.2202,3.2219,3.2186,3.2208,3.2236,3.2225,3.2228,3.2231,3.2238,3.2241,3.2208,3.2209,3.2209,0,3.2718,3.2678,3.263,3.2607,3.2582,3.2531,3.2515,3.2484,3.2423,3.2407,3.2392,3.2318,3.2279,3.2245,3.2249,3.223,3.2224,3.2215,3.2232,3.2235,3.2237,3.2242,3.2245,3.2212,3.2211,3.2211,3.2211,0,3.2722,3.2695,3.2689,3.2635,3.261,3.259,3.2537,3.2517,3.2487,3.2451,3.2419,3.2371,3.2325,3.2314,3.2282,3.2276,3.2268,3.2244,3.2217,3.2245,3.2249,3.2251,3.2216,3.2215,3.2214,3.2213,0,0,3.2784,3.2705,3.2703,3.2679,3.262,3.2597,3.2575,3.2533,3.2517,3.2477,3.2456,3.2409,3.2386,3.2357,3.2322,3.2312,3.2329,3.2288,3.2286,3.2298,3.2319,3.2338,3.2341,3.2307,3.2307,3.2307,3.2324,0,3.2802,3.2762,3.2719,3.2693,3.2668,3.2619,3.26,3.2561,3.2527,3.2499,3.2461,3.2428,3.2401,3.2383,3.2371,3.2329,3.2332,3.2327,3.2286,3.2285,3.2301,3.2343,3.2363,3.2381,3.2325,3.2325,3.2325,0,3.2818,3.2784,3.2757,3.2702,3.2689,3.2673,3.2631,3.2606,3.2561,3.2537,3.2506,3.2469,3.2442,3.242,3.2382,3.238,3.236,3.2337,3.2337,3.2331,3.2307,3.2339,3.2385,3.2388,3.2327,3.2327,3.2327,0,3.2867,3.2813,3.2791,3.2771,3.2706,3.2696,3.2668,3.2622,3.26,3.2563,3.2548,3.2507,3.2485,3.2454,3.2407,3.2394,3.2374,3.2347,3.2353,3.2354,3.235,3.2351,3.2395,3.2338,3.2338,3.2338,3.2338,0,3.2892,3.2877,3.2812,3.2798,3.278,3.273,3.2713,3.2681,3.2641,3.2619,3.2573,3.2553,3.2492,3.2464,3.2427,3.2402,3.2392,3.2371,3.2361,3.2375,3.2378,3.2362,3.2359,3.2338,3.2338,3.2338,3.2338,0,3.2943,3.2899,3.2871,3.2813,3.2798,3.2788,3.2737,3.2721,3.2685,3.2658,3.2649,3.2592,3.2557,3.2507,3.2456,3.2431,3.2412,3.2396,3.2428,3.2422,3.2431,3.2431,3.2465,3.2468,3.241,3.241,3.2411,0,3.2962,3.2951,3.2892,3.2876,3.285,3.2823,3.2801,3.2751,3.273,3.2679,3.2669,3.2632,3.2599,3.2546,3.2499,3.246,3.2443,3.2458,3.2437,3.2452,3.2444,3.2445,3.2444,3.2463,3.2464,3.2464,3.2465,0,3.3002,3.2981,3.2952,3.2916,3.2892,3.286,3.2826,3.2814,3.2757,3.2735,3.2701,3.2676,3.2626,3.2589,3.2544,3.2513,3.248,3.2472,3.2472,3.2486,3.2505,3.2496,3.2442,3.2471,3.2471,3.247,3.247,3.247,3.3037,3.3025,3.2983,3.2953,3.2923,3.2893,3.2876,3.2839,3.281,3.2767,3.2739,3.2706,3.2662,3.2599,3.257,3.2543,3.2529,3.2527,3.2527,3.2528,3.2533,3.251,3.2534,3.2534,3.2534,3.2534,3.2533,0,3.3075,3.3046,3.3019,3.2974,3.295,3.2923,3.2885,3.2866,3.2839,3.2801,3.2771,3.2732,3.2696,3.2648,3.2609,3.2596,3.258,3.2588,3.2588,3.2582,3.2548,3.2553,3.2602,3.2602,3.2602,3.2602,3.2602,3.2602,3.3092,3.307,3.3045,3.3008,3.2978,3.2948,3.2928,3.29,3.287,3.283,3.2801,3.277,3.2728,3.2686,3.2652,3.2639,3.2626,3.2639,3.2621,3.259,3.2584,3.2578,3.2582,3.2637,3.2637,3.2657,3.2657,3.2658]}]]